Dewpoint
27 27 24 25 26 25 26 29 27 29 31 34 36 37 38 39 40 47 50 50 53 55 55 57 55 58 60 60 60 59 56 52 50 51 50 50 48 48 48 48 48 47 47 47
25 22 20 20 21 23 23 26 29 29 27 34 37 36 35 36 38 39 42 49 53 53 54 57 59 60 60 60 59 59 57 55 52 52 51 49 47 47 47 47 46 46 45 45
24 27 19 15 22 24 25 27 27 23 29 34 35 35 34 36 36 37 40 42 45 53 55 56 56 59 60 60 60 59 58 56 54 52 51 49 47 46 46 46 45 45 44 44
22 18 10 23 28 29 27 26 28 29 30 32 34 36 35 35 36 37 38 40 43 47 52 55 58 58 61 60 60 60 58 55 53 52 51 49 47 46 46 45 45 44 44 44
15 16 20 19 25 26 24 24 29 29 31 32 33 35 32 35 36 36 38 40 43 49 51 56 57 59 60 60 59 58 56 54 52 52 51 50 47 46 46 45 45 44 43 43
17 9 6 20 27 28 32 18 30 31 31 31 28 24 29 35 35 36 38 38 41 44 47 52 58 59 59 59 59 58 57 56 53 52 51 49 50 47 47 45 44 44 43 43
15 15 19 27 29 24 14 20 31 32 32 31 29 31 35 36 34 35 36 37 39 41 43 45 48 58 58 58 58 58 57 57 54 52 51 51 51 49 48 46 46 45 44 45
15 13 11 31 29 22 28 32 33 33 33 33 33 33 35 35 34 34 34 36 38 38 40 42 45 46 49 49 54 59 58 57 55 54 53 51 50 49 48 47 46 45 46 46
22 21 31 32 31 33 35 33 30 28 27 29 32 32 33 33 34 34 34 34 36 36 38 39 40 41 41 43 49 58 58 56 55 55 52 51 50 50 49 48 47 46 44 44
26 29 31 32 35 35 34 30 28 27 27 26 27 29 30 33 33 33 33 34 34 35 35 36 38 38 40 41 46 56 57 57 56 54 52 52 52 51 50 49 48 46 45 45
23 28 30 29 34 34 31 29 28 28 27 27 26 27 28 28 29 30 31 31 31 32 34 34 36 36 38 39 43 48 53 56 55 54 53 52 51 51 50 49 47 47 46 45
18 28 28 28 30 31 29 29 29 29 28 28 28 27 29 29 28 27 28 29 29 29 29 31 32 34 35 38 39 42 44 46 51 54 53 53 52 48 42 45 42 41 41 43
26 29 28 27 29 29 29 30 30 29 28 29 29 28 29 30 30 30 26 28 29 29 27 27 30 32 34 36 37 38 40 40 47 50 51 51 51 49 47 44 40 39 39 38
26 27 24 25 25 28 29 30 31 30 30 30 31 30 29 30 31 30 26 27 29 30 28 25 27 30 33 35 36 36 36 35 42 47 51 50 50 49 49 47 46 45 42 40
21 21 22 22 23 26 29 31 30 30 30 29 31 31 31 29 30 31 29 27 27 28 29 25 24 28 31 33 35 35 35 35 37 41 42 45 50 50 49 49 48 47 45 40
20 20 21 22 22 24 26 29 30 31 31 31 29 31 32 30 30 31 30 28 26 27 29 26 24 28 31 32 34 35 35 34 34 36 38 39 42 44 45 47 47 46 46 47
19 19 20 22 23 25 27 29 31 32 32 31 30 30 32 32 29 31 30 28 27 27 29 26 25 28 30 31 32 35 34 34 34 35 35 35 37 38 39 42 43 44 46 45
21 23 22 23 24 27 28 29 29 32 32 32 31 30 31 31 30 30 29 28 26 27 29 27 26 27 29 30 31 33 33 33 33 34 34 33 34 35 35 36 37 37 38 38
22 22 24 26 28 27 27 29 30 33 32 31 30 29 30 30 30 30 28 26 25 27 28 27 26 27 27 30 31 32 32 32 33 32 32 33 33 33 33 33 33 34 34 34
21 24 26 27 27 27 27 29 32 33 31 31 30 29 29 29 29 29 29 27 26 27 28 26 26 26 27 29 31 31 31 30 30 31 32 31 31 31 32 32 32 32 32 33
22 24 25 27 28 29 29 29 29 31 30 30 29 28 29 30 29 28 27 25 27 28 27 24 25 25 26 29 30 30 30 29 29 30 31 31 30 30 31 31 31 31 31 32
24 24 25 27 27 28 28 31 34 31 29 28 28 29 28 28 28 28 28 26 28 24 26 25 25 24 26 29 29 30 30 30 29 30 31 31 31 30 30 30 30 30 31 31
24 25 26 27 27 27 30 34 28 27 25 25 28 29 28 28 28 26 25 26 28 25 25 24 24 24 28 30 30 30 30 30 29 29 29 30 30 29 29 30 30 30 30 31
25 26 27 28 28 30 31 31 31 30 28 30 29 28 26 26 26 28 26 23 22 22 24 25 25 27 28 29 27 28 28 29 27 27 28 28 28 28 28 28 29 31 31 31
26 27 27 27 29 31 33 34 34 32 29 29 28 28 27 27 26 27 25 25 23 22 24 26 26 27 28 26 26 26 26 28 27 28 28 28 28 28 28 29 29 30 31 30
26 28 29 28 31 31 31 30 28 29 28 27 27 26 26 26 26 26 25 22 25 25 26 26 27 28 27 26 26 27 27 28 27 27 27 27 28 28 28 28 28 28 28 28
29 27 28 28 30 31 30 29 28 27 26 26 26 25 26 24 23 24 24 25 24 25 25 25 26 25 27 26 26 27 27 26 23 25 26 26 26 26 27 27 27 27 27 27
Lifted_Index
3 2 1 0 0 0 1 1 1 1 1 1 1 1 -0 -1 -2 -2 -2 -2 -2 -2 -2 -1 -1 -0 0 0 0 -0 -0 -0 -0 -0 -0 0 1 1 2 3 4 5 7 9
2 1 1 0 1 1 1 2 2 1 2 2 2 1 -0 -1 -2 -1 -1 -1 -1 -1 -1 -1 -1 -0 -0 -0 -0 -0 -0 -0 -0 -0 -0 -0 0 1 1 2 3 5 7 8
1 1 1 1 2 3 3 3 2 2 3 3 3 3 1 -0 -1 -1 -0 1 1 1 0 -0 -0 -0 -1 -1 -0 -0 0 -0 -0 -0 -0 -0 0 1 1 1 2 4 6 7
1 1 1 3 4 5 5 4 4 4 4 4 4 4 2 1 0 -0 0 1 1 1 1 0 -0 -0 -1 -1 -0 -0 0 0 0 -0 -0 -0 0 1 1 1 1 2 4 5
1 1 2 4 5 6 5 5 5 5 5 5 5 4 3 2 2 1 1 1 1 1 0 -0 -1 -1 -1 -1 -0 -0 0 0 0 0 0 0 0 1 1 0 0 1 2 3
2 2 3 5 6 6 5 4 6 7 6 6 5 3 3 3 3 3 2 2 1 1 1 -0 -1 -1 -1 -1 -1 -1 -0 -0 0 0 1 1 0 0 1 1 0 0 1 2
2 2 4 6 7 6 5 5 7 7 7 6 5 5 5 5 4 3 2 2 1 1 1 -0 -1 -1 -1 -1 -1 -1 -1 -1 -0 1 1 1 0 0 1 1 1 1 1 2
3 4 5 7 8 7 7 8 8 8 8 7 7 6 6 5 4 4 3 2 1 1 1 1 0 0 -0 -1 -1 -1 -1 -1 0 1 1 1 1 0 1 1 1 1 1 1
6 6 7 8 9 9 9 9 9 9 9 9 8 7 7 6 5 4 3 3 3 2 2 2 2 2 1 0 0 -0 -1 -0 0 1 1 1 0 0 0 0 1 1 1 1
8 8 8 9 9 10 10 10 11 11 11 11 10 9 9 8 7 6 5 4 4 4 3 4 4 4 3 2 2 1 -0 -0 1 1 1 1 0 0 0 0 1 1 1 1
8 8 8 9 9 9 10 11 11 12 12 12 12 11 11 11 10 9 7 6 5 5 4 4 4 4 4 4 3 2 1 1 1 1 1 0 -0 0 1 1 1 1 1 2
7 7 8 8 9 9 10 10 11 12 12 13 13 13 13 13 13 12 10 9 8 6 5 5 4 4 4 4 3 2 2 2 2 1 1 0 -0 0 1 1 2 2 2 3
7 7 8 8 8 9 9 10 10 11 12 12 13 13 13 14 14 14 13 12 11 9 7 6 5 4 4 4 3 2 2 2 2 2 1 1 0 1 1 2 2 3 3 3
7 8 8 8 8 9 9 9 10 10 11 12 12 13 13 13 14 14 14 14 14 12 10 8 7 6 6 5 4 3 2 2 2 2 2 2 2 2 2 3 3 3 3 3
7 8 8 8 8 8 9 9 9 9 10 11 12 12 12 13 13 14 14 14 14 13 12 11 10 9 9 7 5 4 3 3 2 2 2 2 2 3 3 3 3 3 3 3
6 7 7 7 8 8 8 8 9 9 10 10 11 12 12 12 13 13 13 14 13 13 14 13 13 12 12 10 8 6 5 4 3 3 3 2 3 3 3 3 3 3 3 3
5 6 6 7 7 7 8 8 8 9 9 10 11 11 12 12 12 13 13 13 13 14 14 14 14 14 14 13 11 9 7 6 5 4 4 3 3 3 3 3 4 4 4 4
5 5 6 6 6 6 6 7 7 8 8 9 10 11 12 12 12 13 13 13 13 13 14 14 15 15 14 14 13 12 10 9 7 6 6 5 4 4 4 4 4 4 4 4
5 5 5 5 5 5 6 6 6 6 7 8 8 10 11 12 12 13 13 13 13 13 14 14 14 15 15 15 15 14 13 12 11 9 8 7 7 6 6 6 5 5 5 5
6 6 5 5 5 5 5 5 5 5 5 6 6 7 9 10 12 12 13 13 13 14 14 14 14 14 14 15 15 15 14 14 13 12 11 10 9 8 8 8 7 7 7 7
6 6 6 5 5 5 5 5 5 5 4 4 5 6 7 8 10 10 11 12 13 14 14 15 14 14 14 14 14 14 14 14 14 14 13 12 11 10 10 9 9 9 9 9
6 6 6 5 5 5 5 5 5 4 4 4 4 5 6 7 8 8 9 10 11 13 13 14 14 14 14 14 14 14 14 14 14 14 14 14 13 12 12 11 11 10 10 10
6 6 6 6 6 5 5 5 5 4 4 4 4 5 6 6 7 7 8 9 10 11 12 12 13 13 13 13 13 13 13 13 14 14 14 14 14 13 13 13 12 12 12 12
7 6 6 6 6 6 5 5 5 5 4 4 5 5 6 6 7 7 8 9 10 10 11 11 11 11 11 12 12 12 12 13 13 13 13 14 14 14 14 14 13 13 13 13
7 7 6 6 6 6 6 5 5 5 5 5 6 6 6 7 7 8 10 10 11 11 11 11 11 11 11 11 11 11 11 11 12 12 12 13 13 13 14 14 14 14 14 14
7 7 7 6 6 6 6 6 6 6 7 7 7 7 7 7 8 9 10 11 11 11 11 11 11 11 11 11 11 11 11 11 11 11 12 12 13 13 13 13 13 13 13 13
7 7 7 7 6 6 6 6 7 7 7 8 8 7 7 8 9 10 11 11 10 10 11 11 11 12 12 11 11 11 12 12 12 11 12 12 12 13 13 13 12 12 12 12